Temperature
3 3 3 3 3 3 3 3 3 4 4 4 4 4 4 4 4 4 4 4 4 4 4 4 4 4 4 4 4 4 3 3 3 3 4 4 4 4 4 4 4 4 4
3 3 3 3 3 3 3 3 3 3 3 3 3 3 3 3 3 3 3 3 3 3 3 3 3 3 3 3 3 3 3 3 3 3 3 3 3 3 4 4 4 4 4
3 3 3 3 3 3 3 3 3 3 3 3 3 3 3 3 3 3 3 3 3 3 3 3 3 3 3 3 3 3 3 2 3 3 2 3 3 3 3 3 3 3 3
2 2 2 2 2 3 3 2 2 2 3 3 3 3 3 2 2 2 3 3 3 2 2 2 2 2 2 2 2 2 2 2 2 2 2 2 2 2 2 3 3 3 3
2 2 2 2 2 2 2 2 2 2 2 2 2 2 2 2 2 2 2 2 2 2 2 2 2 2 2 2 2 2 2 2 2 2 2 2 2 1 2 2 2 2 2
1 1 1 1 2 2 2 2 2 2 2 2 2 2 2 2 2 1 2 2 2 2 2 2 2 1 1 1 1 1 1 1 2 1 1 1 1 1 1 1 1 1 1
1 1 1 1 1 1 1 1 1 1 1 1 1 1 1 1 1 1 1 1 1 1 1 1 1 1 1 1 1 1 1 1 1 1 1 1 1 1 1 0 1 1 1
1 1 1 1 1 1 1 1 1 1 1 1 1 1 1 1 1 1 0 1 1 1 1 1 1 0 0 0 0 0 0 0 0 0 1 1 1 0 0 0 0 0 1
1 1 0 0 0 0 0 0 0 0 0 0 0 0 0 0 0 0 -0 0 0 0 0 0 0 -0 -0 -0 -0 -0 -0 -0 -0 -0 -0 0 0 0 -0 -0 -0 -0 -0
0 0 0 0 -0 -0 0 0 -0 -0 -0 -0 -0 -0 -1 -1 -1 -1 -1 -0 -0 -1 -0 -0 -0 -1 -1 -1 -1 -1 -1 -1 -1 -1 -0 -0 -0 -1 -1 -1 -1 -1 -1
0 -0 -0 -0 -0 -0 -0 -0 -0 -1 -1 -1 -1 -1 -1 -1 -1 -1 -1 -1 -1 -1 -1 -1 -1 -1 -1 -1 -1 -1 -1 -1 -1 -1 -1 -1 -1 -1 -1 -1 -1 -1 -1
-1 -1 -1 -1 -1 -1 -1 -1 -1 -1 -1 -1 -2 -2 -2 -2 -2 -2 -2 -2 -2 -2 -2 -2 -2 -2 -2 -2 -1 -1 -2 -2 -2 -2 -2 -2 -2 -2 -2 -1 -1 -1 -2
-1 -1 -1 -1 -1 -1 -1 -1 -1 -1 -1 -2 -2 -2 -2 -2 -2 -2 -2 -2 -2 -2 -2 -2 -2 -2 -2 -2 -2 -2 -2 -2 -2 -2 -2 -2 -2 -2 -2 -2 -1 -2 -1
-1 -1 -1 -1 -1 -1 -1 -1 -2 -2 -2 -2 -2 -2 -2 -2 -2 -3 -3 -2 -2 -2 -2 -2 -2 -2 -2 -2 -2 -2 -2 -3 -3 -3 -3 -3 -2 -2 -2 -2 -2 -2 -2
-2 -2 -2 -2 -2 -2 -2 -2 -2 -2 -2 -2 -2 -2 -3 -3 -3 -3 -3 -3 -3 -3 -3 -3 -3 -3 -3 -3 -3 -3 -3 -3 -3 -3 -3 -3 -3 -3 -3 -3 -3 -3 -3
-2 -2 -2 -2 -2 -2 -2 -2 -2 -3 -3 -3 -3 -3 -3 -3 -3 -3 -3 -3 -3 -3 -3 -3 -3 -3 -3 -4 -4 -4 -4 -4 -4 -4 -3 -3 -3 -3 -3 -3 -3 -3 -3
-2 -3 -3 -3 -3 -3 -3 -3 -3 -3 -3 -3 -3 -3 -3 -3 -3 -3 -3 -3 -3 -3 -3 -3 -4 -4 -4 -4 -4 -4 -4 -4 -4 -4 -4 -4 -4 -4 -4 -4 -4 -4 -4
-3 -3 -3 -3 -3 -3 -3 -3 -3 -3 -3 -3 -3 -4 -4 -4 -3 -3 -3 -3 -3 -3 -3 -4 -4 -4 -4 -4 -4 -5 -5 -4 -4 -4 -4 -4 -4 -4 -4 -4 -4 -4 -4
-3 -3 -3 -3 -3 -4 -4 -4 -4 -4 -4 -4 -4 -4 -4 -4 -4 -4 -4 -4 -4 -4 -4 -4 -4 -4 -4 -5 -5 -5 -5 -5 -5 -5 -5 -4 -4 -4 -4 -5 -5 -5 -5
-3 -4 -4 -4 -4 -4 -4 -4 -4 -4 -4 -4 -4 -4 -4 -4 -4 -4 -4 -4 -4 -4 -4 -4 -5 -5 -5 -5 -5 -5 -5 -5 -5 -5 -5 -5 -5 -5 -5 -5 -5 -5 -5
-4 -4 -4 -4 -4 -4 -4 -4 -5 -5 -5 -5 -5 -5 -5 -5 -5 -5 -5 -5 -5 -5 -5 -5 -5 -5 -5 -5 -5 -6 -5 -5 -5 -5 -5 -5 -5 -5 -5 -5 -5 -5 -5
-4 -4 -4 -4 -4 -5 -5 -5 -5 -5 -5 -5 -5 -5 -5 -5 -5 -5 -5 -5 -5 -5 -5 -5 -5 -5 -5 -6 -6 -6 -6 -6 -6 -5 -5 -6 -6 -6 -6 -5 -5 -5 -5
-4 -4 -4 -5 -5 -5 -5 -5 -5 -5 -5 -5 -5 -5 -5 -5 -5 -5 -5 -5 -5 -6 -6 -6 -6 -6 -6 -6 -6 -6 -6 -6 -6 -6 -6 -6 -6 -6 -6 -6 -6 -5 -5
-5 -5 -5 -5 -5 -5 -5 -5 -5 -6 -6 -6 -6 -6 -6 -6 -6 -6 -6 -6 -6 -6 -6 -6 -6 -6 -6 -6 -6 -6 -6 -6 -6 -6 -6 -6 -6 -6 -6 -6 -6 -6 -6
-5 -5 -5 -5 -6 -6 -6 -6 -6 -6 -6 -6 -6 -6 -6 -6 -6 -6 -6 -6 -6 -6 -6 -6 -6 -6 -6 -6 -6 -6 -6 -6 -6 -6 -6 -6 -6 -6 -6 -6 -6 -6 -6
-5 -6 -6 -6 -6 -6 -6 -6 -6 -6 -6 -6 -7 -7 -7 -6 -6 -6 -6 -6 -6 -6 -6 -6 -6 -6 -6 -6 -6 -6 -6 -6 -6 -6 -6 -6 -6 -6 -6 -6 -6 -6 -6
Wind_Speed
3 3 3 3 3 3 3 4 3 3 3 3 4 4 4 4 3 3 3 3 3 3 3 2 2 1 1 0 0 0 1 1 2 3 2 2 2 2 4 5 5 4 5
3 3 3 2 2 3 4 3 3 3 3 3 3 3 4 4 3 4 4 4 3 3 3 2 2 1 1 0 1 1 1 1 2 3 3 2 3 3 3 3 5 5 5
2 3 3 2 2 3 3 3 3 3 2 2 2 3 3 3 4 4 3 3 3 2 2 2 2 2 1 1 1 1 1 1 1 2 3 3 2 3 3 4 4 4 5
2 2 2 2 2 3 3 2 2 2 2 2 2 2 2 2 3 3 3 2 2 2 2 1 1 2 2 2 1 1 0 1 1 1 1 2 2 3 3 3 4 5 5
2 2 2 3 3 2 1 1 1 1 2 2 2 1 2 2 2 2 2 2 2 1 1 1 1 1 1 1 0 0 0 0 0 0 1 2 2 3 3 3 4 5 5
2 2 2 2 2 2 1 1 0 1 1 1 1 1 1 1 2 2 1 1 1 2 2 1 1 2 2 2 2 2 1 1 1 1 1 2 2 3 3 3 3 4 4
2 2 2 2 2 2 1 1 0 1 1 1 1 1 0 0 1 1 1 1 0 1 2 1 1 1 2 2 2 3 2 2 1 0 1 2 2 2 3 3 4 5 4
2 2 2 2 2 2 1 1 0 0 0 0 1 1 1 0 1 1 2 2 1 2 2 2 2 2 1 2 2 2 2 2 2 1 0 1 2 2 2 3 3 4 4
2 2 2 2 2 2 1 1 0 0 0 0 0 1 1 1 1 1 2 1 2 2 1 2 3 2 2 3 2 2 2 2 3 4 4 4 5 5 4 2 3 3 4
2 2 2 2 2 2 2 1 1 1 0 1 0 0 1 1 1 1 2 2 1 1 1 2 2 2 2 2 2 2 2 2 3 3 4 5 4 4 5 3 2 2 3
2 2 2 2 2 2 2 1 1 1 1 1 1 1 1 1 1 2 2 1 1 1 1 2 2 3 2 3 3 2 1 2 2 2 2 2 3 3 4 4 3 2 2
2 2 2 2 2 2 2 2 1 1 1 1 1 1 1 1 2 2 3 2 3 2 2 2 2 4 4 4 3 4 4 4 2 2 2 2 3 3 3 4 5 4 3
2 2 2 2 2 2 1 1 1 1 1 0 1 1 1 1 1 2 2 3 3 3 2 3 4 5 5 4 4 5 4 3 2 2 2 2 3 3 3 3 4 4 4
2 2 1 1 2 2 1 1 1 1 1 0 0 0 1 1 1 1 1 2 3 3 3 4 5 6 5 5 5 4 3 2 2 2 2 2 2 3 3 3 3 4 4
2 1 1 1 1 2 2 2 1 1 1 0 0 1 1 0 1 1 1 1 1 2 2 2 2 2 3 3 3 3 3 3 3 2 2 2 3 3 3 3 3 4 3
2 1 1 1 1 1 2 3 4 3 4 3 3 2 2 2 2 2 2 2 2 3 2 2 2 2 2 2 2 2 2 2 2 2 2 2 2 3 3 3 3 4 4
2 2 1 1 1 1 1 1 2 3 4 4 4 3 2 2 2 2 2 2 2 2 2 2 1 1 2 2 2 2 2 2 2 2 2 2 2 3 3 3 4 4 4
2 2 2 1 1 1 1 1 1 1 2 2 3 3 3 3 3 3 3 3 2 2 2 2 2 1 2 2 1 1 1 2 2 2 2 2 3 3 3 3 3 4 4
2 1 1 1 1 1 1 1 1 1 1 1 2 2 3 3 4 4 3 2 2 2 2 2 2 2 2 1 1 1 1 1 2 2 2 2 3 3 3 3 3 4 4
1 2 2 1 1 1 1 1 1 1 1 1 1 1 1 2 2 2 2 2 2 2 2 2 1 2 1 1 1 1 1 1 2 2 2 2 3 3 3 4 4 3 3
1 1 2 1 1 1 1 1 1 1 1 1 1 1 1 1 1 1 1 1 1 1 1 1 1 1 1 1 1 1 1 1 1 1 2 2 3 3 3 3 4 3 3
1 0 0 0 1 1 1 1 1 1 1 1 1 1 1 1 1 1 1 1 1 1 1 1 1 0 0 0 0 0 0 0 1 1 2 2 2 2 3 3 3 3 3
1 0 0 0 0 1 1 1 0 0 1 1 1 1 1 1 1 1 1 1 1 1 1 0 0 0 0 1 1 1 1 1 1 1 2 2 2 2 3 3 3 4 3
0 0 0 0 0 0 0 0 0 0 0 0 0 0 0 0 1 1 1 1 1 1 0 0 1 1 1 1 1 1 2 2 2 2 2 2 2 2 2 3 3 4 3
0 0 0 0 0 0 0 0 0 0 0 0 0 0 0 0 0 0 0 0 0 0 0 1 1 1 1 2 2 2 3 4 4 3 2 1 2 2 3 3 3 3 3
0 0 0 0 0 0 0 0 1 0 0 0 0 0 0 0 0 0 0 0 0 1 1 1 1 2 2 2 2 3 4 4 4 4 2 1 1 2 2 2 3 3 3
Wind_Direction
293 292 288 267 260 258 252 253 259 258 237 222 223 225 230 234 228 223 231 236 237 246 248 238 232 186 180 191 261 285 302 274 265 301 318 323 331 340 339 341 330 320 316
310 308 294 265 246 253 259 263 261 256 244 226 224 228 230 235 233 227 230 230 232 239 240 236 229 192 167 174 193 234 274 282 257 287 306 319 330 331 338 342 339 337 329
322 317 307 293 276 268 267 266 260 257 253 235 222 223 228 237 239 235 229 226 221 227 229 223 213 175 198 205 202 228 269 306 292 259 292 313 327 340 349 344 340 340 337
323 327 319 308 298 291 281 263 250 243 240 239 231 227 228 237 240 237 229 221 220 215 213 213 193 180 185 199 208 217 268 291 298 269 280 311 328 338 351 343 340 339 335
322 325 314 315 310 298 289 280 250 242 238 230 218 229 226 233 238 242 226 213 209 200 188 191 164 139 97 118 149 136 130 209 272 268 286 323 332 342 337 329 331 329 327
309 306 317 325 322 312 294 291 286 253 229 210 200 204 225 260 290 285 290 199 204 183 172 167 139 131 101 70 48 40 20 203 210 206 273 289 308 322 325 327 328 331 326
317 322 340 342 333 325 319 343 283 250 222 178 172 154 162 135 342 345 3 48 155 148 132 124 105 95 96 108 71 40 24 356 329 238 231 267 290 310 313 318 324 327 311
325 331 345 351 327 323 326 319 299 271 177 151 148 143 136 102 22 48 42 59 87 111 112 122 116 106 96 89 79 51 30 13 350 353 236 299 321 322 319 316 317 325 316
327 329 331 327 318 316 310 289 327 54 60 88 107 109 118 87 34 70 53 84 75 72 85 102 105 110 81 68 77 59 31 23 29 27 11 5 357 359 6 9 348 344 329
320 326 333 335 329 318 317 337 42 78 75 79 69 69 106 113 56 50 43 102 98 73 75 96 98 98 80 62 85 85 50 22 27 25 20 12 8 6 8 10 335 328 326
337 350 354 353 343 335 350 11 46 56 57 61 64 52 72 83 63 70 47 67 99 90 88 81 86 75 59 47 62 83 51 32 46 41 22 11 8 11 8 0 346 319 311
1 3 352 350 344 349 14 22 42 66 69 51 61 53 57 54 39 77 59 49 46 88 88 80 71 55 53 54 60 59 53 50 58 45 32 17 8 4 360 355 352 346 324
4 356 342 344 350 4 40 42 34 42 72 56 69 65 39 56 54 56 57 44 39 68 79 70 63 58 60 60 59 54 51 52 52 44 27 11 357 346 351 356 358 0 356
348 337 340 8 18 26 37 51 50 42 63 94 91 81 52 55 55 70 73 68 61 65 74 74 61 58 58 57 54 48 48 52 52 46 21 6 0 1 3 358 353 354 359
340 352 27 36 38 31 26 25 24 22 37 99 90 98 102 57 17 33 56 70 84 84 75 82 75 69 66 58 55 52 45 40 42 35 25 12 7 5 358 354 353 352 357
340 351 34 43 48 53 48 33 31 29 27 42 50 52 49 57 48 57 65 67 73 75 80 93 80 73 77 66 59 47 40 34 31 25 16 9 5 1 355 353 355 359 355
333 342 15 27 38 45 51 61 46 34 31 35 44 51 60 58 53 57 70 73 68 70 88 96 96 95 85 75 66 52 33 26 24 19 11 1 358 357 355 357 360 359 354
347 350 6 19 21 24 33 43 64 78 53 29 30 42 46 44 48 51 53 57 57 63 93 96 91 93 88 79 68 54 39 32 28 17 10 2 357 357 355 353 352 351 350
348 9 22 21 17 20 29 46 56 71 70 51 49 40 36 34 32 35 39 65 76 69 74 83 89 94 89 81 71 54 39 27 20 15 9 359 351 351 349 345 341 340 347
352 357 15 22 25 34 42 45 46 59 62 54 41 34 32 33 41 39 48 64 73 71 68 70 76 88 89 93 74 55 42 31 22 17 2 356 348 345 342 339 336 337 338
352 358 2 19 21 15 35 46 45 54 55 42 22 7 45 76 65 56 56 65 73 68 63 68 76 83 89 92 89 56 38 22 9 358 349 343 340 338 336 334 334 335 336
340 337 353 27 14 14 20 39 39 40 33 31 24 13 7 62 80 72 59 54 57 67 72 74 61 64 125 153 158 194 304 337 337 335 335 331 330 330 331 332 335 335 339
327 329 357 23 29 315 347 24 41 21 2 7 23 25 26 71 114 114 79 57 47 46 47 80 84 33 322 296 257 231 242 263 271 280 298 305 314 320 323 323 328 332 332
278 280 320 11 8 343 318 332 348 349 354 0 15 9 26 50 70 78 76 68 54 20 342 279 241 238 263 280 278 268 264 267 267 265 267 277 297 310 317 322 326 327 325
246 257 249 234 257 270 299 314 312 310 314 314 333 349 26 60 73 68 71 69 45 11 307 283 264 263 267 271 266 262 264 276 284 284 268 263 281 298 310 314 319 324 325
48 31 5 311 272 254 236 235 248 258 265 280 294 266 224 214 217 228 242 281 309 300 299 294 287 289 292 290 278 274 279 285 287 287 270 245 260 289 304 306 312 318 323
Height
1454 1454 1453 1453 1453 1453 1453 1453 1453 1453 1453 1453 1453 1453 1453 1453 1453 1454 1454 1455 1455 1456 1456 1456 1456 1457 1457 1458 1459 1460 1460 1460 1459 1457 1458 1457 1457 1455 1455 1454 1453 1452 1451
1451 1450 1450 1450 1450 1450 1449 1449 1449 1449 1449 1450 1450 1450 1450 1450 1450 1450 1450 1451 1451 1452 1452 1453 1453 1453 1454 1455 1456 1457 1457 1457 1457 1455 1454 1454 1453 1452 1452 1451 1450 1449 1448
1448 1447 1446 1446 1446 1446 1446 1446 1446 1446 1446 1446 1446 1446 1446 1446 1446 1446 1447 1447 1448 1448 1449 1449 1450 1451 1451 1452 1453 1454 1454 1454 1454 1453 1452 1452 1451 1450 1449 1448 1448 1446 1445
1446 1444 1443 1443 1443 1443 1443 1443 1443 1443 1443 1443 1442 1443 1443 1443 1443 1443 1444 1444 1444 1445 1445 1446 1447 1448 1448 1449 1450 1450 1451 1451 1451 1451 1450 1449 1448 1447 1446 1445 1444 1443 1442
1443 1442 1441 1441 1440 1440 1439 1439 1440 1440 1439 1439 1439 1439 1440 1440 1440 1440 1440 1440 1441 1441 1442 1443 1444 1445 1446 1447 1447 1448 1448 1448 1449 1448 1448 1447 1446 1444 1444 1443 1442 1440 1439
1441 1440 1439 1438 1437 1437 1436 1436 1436 1436 1436 1436 1436 1436 1437 1437 1437 1437 1437 1437 1437 1438 1439 1440 1441 1442 1443 1444 1445 1445 1446 1446 1446 1446 1446 1445 1443 1443 1442 1442 1440 1438 1436
1439 1438 1437 1436 1435 1434 1434 1433 1433 1433 1434 1433 1433 1434 1434 1434 1434 1434 1435 1435 1435 1436 1436 1437 1438 1439 1440 1441 1442 1443 1444 1445 1445 1445 1444 1443 1442 1441 1441 1440 1439 1437 1436
1437 1436 1435 1434 1433 1432 1431 1431 1431 1431 1431 1431 1431 1431 1431 1431 1432 1432 1433 1433 1434 1434 1435 1436 1436 1437 1438 1439 1440 1440 1441 1442 1442 1442 1442 1441 1440 1440 1439 1439 1437 1436 1434
1435 1434 1433 1432 1432 1431 1430 1429 1429 1429 1429 1428 1429 1429 1429 1430 1430 1431 1431 1432 1432 1432 1433 1434 1435 1436 1436 1437 1438 1438 1438 1439 1439 1439 1439 1439 1438 1438 1438 1437 1436 1434 1431
1433 1433 1432 1431 1430 1429 1428 1427 1427 1427 1427 1426 1427 1427 1427 1428 1429 1430 1430 1430 1430 1431 1432 1432 1433 1434 1435 1435 1436 1436 1436 1436 1436 1436 1436 1436 1436 1436 1435 1435 1434 1433 1430
1432 1431 1430 1429 1428 1427 1427 1426 1425 1425 1425 1425 1425 1425 1426 1426 1427 1428 1429 1429 1429 1429 1430 1431 1432 1432 1433 1434 1434 1434 1434 1434 1434 1434 1434 1434 1434 1434 1433 1432 1432 1431 1429
1429 1428 1428 1427 1426 1426 1425 1424 1424 1424 1424 1424 1424 1424 1425 1425 1426 1427 1428 1428 1429 1429 1429 1430 1430 1431 1432 1432 1432 1432 1432 1432 1432 1432 1432 1432 1432 1431 1431 1430 1429 1429 1428
1427 1426 1425 1425 1425 1424 1424 1423 1423 1423 1423 1423 1423 1423 1424 1424 1425 1425 1426 1427 1428 1428 1428 1429 1430 1430 1430 1430 1431 1431 1431 1431 1431 1431 1431 1431 1431 1430 1430 1429 1428 1427 1425
1424 1424 1423 1423 1423 1423 1423 1423 1422 1422 1422 1422 1422 1422 1423 1423 1423 1424 1425 1426 1426 1427 1427 1428 1429 1429 1429 1429 1430 1429 1430 1430 1430 1431 1430 1430 1430 1429 1428 1428 1426 1425 1423
1423 1422 1422 1422 1422 1421 1421 1422 1422 1422 1422 1422 1421 1422 1422 1422 1423 1424 1424 1425 1425 1426 1426 1427 1428 1428 1428 1428 1428 1429 1429 1429 1429 1430 1430 1429 1429 1428 1428 1427 1426 1424 1423
1421 1421 1420 1420 1420 1420 1420 1420 1421 1421 1421 1422 1422 1422 1422 1422 1423 1423 1424 1424 1424 1425 1426 1426 1427 1427 1427 1427 1428 1428 1428 1428 1429 1429 1429 1429 1428 1427 1426 1426 1425 1423 1422
1420 1420 1419 1419 1419 1419 1419 1419 1420 1421 1421 1421 1421 1421 1421 1422 1422 1422 1423 1423 1423 1424 1425 1425 1426 1427 1427 1427 1427 1428 1428 1428 1428 1428 1428 1428 1427 1426 1425 1424 1423 1422 1421
1420 1419 1419 1419 1418 1418 1419 1419 1419 1419 1420 1420 1421 1421 1421 1421 1421 1422 1422 1422 1423 1424 1424 1425 1425 1426 1426 1427 1427 1427 1428 1428 1428 1428 1427 1427 1426 1425 1424 1424 1423 1422 1420
1419 1419 1419 1419 1418 1418 1418 1418 1419 1419 1419 1419 1420 1420 1421 1421 1421 1421 1421 1422 1422 1423 1424 1424 1425 1425 1426 1426 1427 1427 1427 1427 1427 1427 1426 1426 1425 1425 1424 1423 1422 1421 1420
1418 1418 1418 1418 1418 1418 1418 1418 1418 1418 1418 1419 1419 1420 1420 1420 1420 1420 1421 1421 1422 1422 1423 1424 1424 1425 1425 1426 1426 1426 1426 1426 1426 1426 1426 1425 1425 1424 1423 1422 1422 1421 1420
1418 1418 1418 1417 1417 1417 1417 1417 1418 1418 1418 1418 1419 1419 1420 1419 1419 1420 1420 1421 1421 1422 1422 1423 1424 1424 1424 1425 1425 1425 1425 1425 1425 1425 1425 1424 1424 1423 1422 1422 1421 1420 1419
1417 1417 1417 1417 1417 1417 1417 1417 1418 1418 1418 1418 1418 1419 1419 1419 1419 1419 1420 1420 1421 1422 1422 1422 1423 1423 1424 1424 1424 1424 1424 1424 1424 1424 1424 1423 1423 1422 1421 1421 1420 1419 1419
1416 1416 1416 1416 1416 1416 1417 1417 1417 1417 1417 1417 1417 1417 1418 1418 1418 1419 1419 1420 1420 1421 1421 1421 1422 1422 1422 1423 1423 1423 1423 1423 1423 1423 1423 1422 1422 1421 1420 1420 1419 1419 1418
1415 1415 1415 1416 1416 1416 1416 1416 1416 1416 1415 1416 1416 1417 1417 1417 1418 1418 1418 1419 1419 1419 1420 1420 1420 1421 1421 1421 1421 1422 1422 1422 1422 1422 1421 1421 1421 1420 1419 1419 1418 1418 1417
1414 1414 1414 1415 1415 1415 1415 1414 1414 1414 1415 1415 1415 1415 1416 1416 1416 1417 1417 1417 1418 1418 1418 1419 1419 1419 1419 1420 1420 1420 1420 1420 1420 1420 1420 1420 1419 1419 1418 1418 1417 1417 1416
1413 1413 1413 1413 1413 1413 1413 1413 1413 1413 1413 1413 1414 1414 1414 1415 1415 1415 1416 1416 1416 1417 1417 1417 1417 1417 1418 1418 1418 1418 1418 1418 1418 1418 1418 1418 1417 1417 1417 1416 1416 1416 1415